Location: Brunembert
(50.7122°N, 1.8935°E)
Time: 04:33:11
(UTC+00:00)

Meteor 2-10 Rocket - Pass Details

Date: 22 April 2021
Orbit: 735 x 884 km, 81.2° (Epoch: 06 May)

Event Time Altitude Azimuth Distance (km) Brightness Sun altitude
Rises 19:41:03 0° 204° (SSW) 3,257 6.7 -6.8°
Reaches altitude 10° 19:43:24 10° 209° (SSW) 2,354 6.0 -7.1°
Maximum altitude 19:48:38 56° 288° (WNW) 969 4.5 -7.9°
Drops below altitude 10° 19:54:08 10° 6° (N) 2,470 6.5 -8.6°
Sets 19:56:40 0° 11° (N) 3,431 7.2 -8.9°
